SWISSCUBE

Last updated on Tue Dec 03 2024 00:03:02 GMT+0000 (Coordinated Universal Time)

1 35932U 09051B 24337.45648608 .00003814 00000+0 79889-3 0 9996 2 35932 98.4484 224.0420 0007314 148.3274 211.8367 14.60324108807102
UTC large
Height (km)
Speed (km/s)
/
Latitude / Longitude
Inclination (degrees)
Orbital Period (minutes)
Azimuth
Elevation
Range (km)
Doppler Factor

Next 0 passes for location: London (51.5072 / 0.1276)

Sorry there are no passes over London.